Tracking 18945 objects as of 20-Jan-2018
HD Live streaming from Space Station
objects crossing your sky now

FLOCK 2K 44

Track FLOCK 2K 44 now!
10-day predictions
FLOCK 2K 44 is classified as:


NORAD ID: 42873
Int'l Code: 2017-042BA
Perigee: 459.8 km
Apogee: 473.8 km
Inclination: 97.0 °
Period: 93.8 minutes
Semi major axis: 6837 km
RCS: Unknown
Launch date: July 14, 2017
Source: United States (US)
Launch site: TYURATAM MISSILE AND SPACE COMPLEX (TTMTR)
aabbcc
Your satellite tracking list
Your tracking list is empty




NASA's NSSDC Master Catalog

Two Line Element Set (TLE):
1 42873U 17042BA  18019.69351971 +.00008027 +00000-0 +23512-3 0  9991
2 42873 096.9938 283.8265 0010258 279.8189 080.1897 15.35415119028844
Source of the keplerian elements: AFSPC